| time (UTC) | temp F | wind direction | speed knots | gust knots | rain 1hr in | rain 24hr in | rain mn in | humidity % | barometer mb |
| 20260504231513 | 77 | 222 | 0.9 | 3.5 | 0.00 | 0.00 | 0.00 | 35 | 1005.4 |
| 20260504230013 | 78 | 222 | 0.9 | 3.5 | 0.00 | 0.00 | 0.00 | 35 | 1005.1 |
| 20260504224514 | 79 | 242 | 1.7 | 4.3 | 0.00 | 0.00 | 0.00 | 34 | 1005.4 |
| 20260504223018 | 79 | 253 | 2.6 | 6.1 | 0.00 | 0.00 | 0.00 | 34 | 1005.5 |
| 20260504221510 | 79 | 75 | 0.9 | 4.3 | 0.00 | 0.00 | 0.00 | 33 | 1005.6 |
| 20260504220015 | 79 | 75 | 0.9 | 7.0 | 0.00 | 0.00 | 0.00 | 31 | 1005.5 |
| 20260504214508 | 80 | 125 | 0.9 | 6.1 | 0.00 | 0.00 | 0.00 | 36 | 1005.6 |
| 20260504213020 | 80 | 320 | 1.7 | 7.0 | 0.00 | 0.00 | 0.00 | 33 | 1005.4 |
| 20260504211508 | 80 | 52 | 1.7 | 3.5 | 0.00 | 0.00 | 0.00 | 30 | 1005.4 |
| 20260504210008 | 80 | 36 | 1.7 | 4.3 | 0.00 | 0.00 | 0.00 | 29 | 1005.5 |
| 20260504204519 | 80 | 327 | 1.7 | 7.8 | 0.00 | 0.00 | 0.00 | 30 | 1005.5 |
| 20260504203003 | 80 | 315 | 0.9 | 4.3 | 0.00 | 0.00 | 0.00 | 34 | 1005.8 |
| 20260504201502 | 79 | 100 | 0.9 | 7.8 | 0.00 | 0.00 | 0.00 | 31 | 1006.0 |
| 20260504200125 | 79 | 106 | 0.9 | 3.5 | 0.00 | 0.00 | 0.00 | 33 | 1006.3 |
| 20260504194602 | 79 | 106 | 2.6 | 8.7 | 0.00 | 0.00 | 0.00 | 33 | 1006.5 |
| 20260504193057 | 79 | 348 | 0.9 | 7.0 | 0.00 | 0.00 | 0.00 | 36 | 1006.6 |
| 20260504191559 | 79 | 268 | 2.6 | 6.1 | 0.00 | 0.00 | 0.00 | 33 | 1006.9 |
| 20260504190053 | 79 | 83 | 1.7 | 4.3 | 0.00 | 0.00 | 0.00 | 35 | 1007.0 |
| 20260504184550 | 78 | 79 | 0.9 | 4.3 | 0.00 | 0.00 | 0.00 | 36 | 1007.2 |
| 20260504183049 | 77 | 77 | 1.7 | 7.8 | 0.00 | 0.00 | 0.00 | 37 | 1007.2 |
| 20260504181548 | 77 | 63 | 2.6 | 7.0 | 0.00 | 0.00 | 0.00 | 36 | 1007.5 |
| 20260504180045 | 77 | 106 | 0.9 | 5.2 | 0.00 | 0.00 | 0.00 | 39 | 1007.7 |
| 20260504174545 | 77 | 112 | 1.7 | 5.2 | 0.00 | 0.00 | 0.00 | 37 | 1007.9 |
| 20260504173042 | 76 | 199 | 0.9 | 5.2 | 0.00 | 0.00 | 0.00 | 35 | 1008.0 |
| 20260504171547 | 76 | 305 | 1.7 | 4.3 | 0.00 | 0.00 | 0.00 | 39 | 1008.2 |
| 20260504081533 | 46 | 135 | 0.0 | 0.0 | 0.00 | 0.00 | 0.00 | 92 | 1009.1 |
| 20260504050018 | 49 | 152 | 0.0 | 0.0 | 0.00 | 0.00 | 0.00 | 90 | 1010.2 |
| 20260504044519 | 50 | 160 | 0.0 | 0.0 | 0.00 | 0.00 | 0.00 | 90 | 1010.2 |
| 20260504043021 | 50 | 165 | 0.0 | 0.0 | 0.00 | 0.00 | 0.00 | 90 | 1010.2 |
| 20260504041512 | 50 | 169 | 0.0 | 0.0 | 0.00 | 0.00 | 0.00 | 90 | 1010.1 |
| 20260504040011 | 50 | 164 | 0.0 | 0.0 | 0.00 | 0.00 | 0.00 | 90 | 1010.0 |
| 20260504034510 | 51 | 139 | 0.0 | 0.0 | 0.00 | 0.00 | 0.00 | 89 | 1010.0 |
| 20260504033010 | 51 | 135 | 0.0 | 0.0 | 0.00 | 0.00 | 0.00 | 89 | 1010.0 |
| 20260504031510 | 52 | 135 | 0.0 | 0.0 | 0.00 | 0.00 | 0.00 | 88 | 1010.0 |
| 20260504030011 | 52 | 135 | 0.0 | 0.0 | 0.00 | 0.00 | 0.00 | 87 | 1009.9 |
| 20260504024510 | 53 | 135 | 0.0 | 0.0 | 0.00 | 0.00 | 0.00 | 86 | 1009.8 |
| 20260504023009 | 53 | 135 | 0.0 | 0.0 | 0.00 | 0.00 | 0.00 | 84 | 1009.9 |
| 20260504021511 | 54 | 135 | 0.0 | 0.0 | 0.00 | 0.00 | 0.00 | 82 | 1009.7 |
| 20260504020013 | 55 | 135 | 0.0 | 0.0 | 0.00 | 0.00 | 0.00 | 81 | 1009.7 |
| 20260504014507 | 56 | 136 | 0.0 | 0.0 | 0.00 | 0.00 | 0.00 | 78 | 1009.6 |
| 20260504013010 | 57 | 136 | 0.0 | 0.0 | 0.00 | 0.00 | 0.00 | 75 | 1009.4 |
| 20260504011507 | 59 | 135 | 0.0 | 0.0 | 0.00 | 0.00 | 0.00 | 71 | 1008.9 |
| 20260504010005 | 60 | 166 | 0.0 | 0.0 | 0.00 | 0.00 | 0.00 | 66 | 1008.9 |
| 20260504004504 | 62 | 167 | 0.0 | 0.0 | 0.00 | 0.00 | 0.00 | 61 | 1008.8 |
| 20260504003003 | 64 | 134 | 0.0 | 0.0 | 0.00 | 0.00 | 0.00 | 57 | 1008.5 |
| 20260504001503 | 66 | 134 | 0.0 | 0.0 | 0.00 | 0.00 | 0.00 | 54 | 1008.3 |
| 20260504000002 | 68 | 135 | 0.0 | 0.0 | 0.00 | 0.00 | 0.00 | 48 | 1008.5 |
| 20260503234502 | 70 | 354 | 0.0 | 1.7 | 0.00 | 0.00 | 0.00 | 41 | 1008.3 |
| 20260503233003 | 71 | 354 | 0.0 | 1.7 | 0.00 | 0.00 | 0.00 | 39 | 1008.4 |